FW9733 Weather Reports


Display with metric or nautical units.
time (UTC)temp
F
wind
direction
speed
MPH
gust
MPH
rain 1hr
in
rain 24hr
in
rain mn
in
humidity
%
barometer
mb
20260906034601 59 0 0.0 0.0 0.00 0.00 0.00 54 1025.0
20260906033058 60 0 0.0 0.0 0.00 0.00 0.00 53 1024.8
20260906031600 61 0 0.0 0.0 0.00 0.00 0.00 52 1024.8
20260906030100 61 271 0.0 0.0 0.00 0.00 0.00 50 1024.6
20260906024556 62 0 0.0 0.0 0.00 0.00 0.00 48 1024.5
20260906023100 63 0 0.0 1.0 0.00 0.00 0.00 47 1024.5
20260906021607 63 0 0.0 1.0 0.00 0.00 0.00 46 1024.5
20260906020104 63 314 0.0 1.0 0.00 0.00 0.00 45 1024.5
20260906014557 64 0 0.0 2.0 0.00 0.00 0.00 46 1024.6
20260906013100 64 0 0.0 1.0 0.00 0.00 0.00 45 1024.5
20260906011558 64 0 0.0 3.0 0.00 0.00 0.00 45 1024.5
20260906010100 65 0 0.0 2.0 0.00 0.00 0.00 43 1024.6
20260906004604 66 0 0.0 1.0 0.00 0.00 0.00 42 1024.5
20260906003102 66 221 0.0 1.0 0.00 0.00 0.00 42 1024.4
20260906001558 66 0 0.0 4.0 0.00 0.00 0.00 43 1024.4
20260906000100 66 0 0.0 4.0 0.00 0.00 0.00 41 1024.4
20260905234601 67 255 0.0 5.0 0.00 0.00 0.00 40 1024.3
20260905233059 68 0 0.0 3.0 0.00 0.00 0.00 41 1024.2
20260905231601 69 309 1.0 5.0 0.00 0.00 0.00 40 1024.1
20260905230055 70 274 1.0 6.0 0.00 0.00 0.00 38 1024.0
20260905224606 70 0 0.0 6.0 0.00 0.00 0.00 38 1024.1
20260905223059 69 212 1.0 9.0 0.00 0.00 0.00 39 1024.2
20260905221607 70 269 1.0 7.0 0.00 0.00 0.00 39 1024.3
20260905220108 71 317 0.0 7.0 0.00 0.00 0.00 40 1024.3
20260905214557 70 275 1.0 7.0 0.00 0.00 0.00 39 1024.4
20260905213101 71 320 2.0 6.0 0.00 0.00 0.00 39 1024.4
20260905211629 72 316 1.0 7.0 0.00 0.00 0.00 38 1024.5
20260905210106 71 307 1.0 7.0 0.00 0.00 0.00 40 1024.5
20260905204607 72 295 1.0 9.0 0.00 0.00 0.00 38 1024.6
20260905203118 73 321 1.0 6.0 0.00 0.00 0.00 40 1024.5
20260905201600 73 311 2.0 8.0 0.00 0.00 0.00 40 1024.5
20260905200103 73 311 2.0 9.0 0.00 0.00 0.00 39 1024.5
20260905194556 72 0 2.0 5.0 0.00 0.00 0.00 39 1024.6
20260905193102 73 303 1.0 5.0 0.00 0.00 0.00 39 1025.0
20260905191556 72 106 3.0 6.0 0.00 0.00 0.00 40 1025.0
20260905190058 73 224 1.0 5.0 0.00 0.00 0.00 40 1024.9
20260905184601 72 0 1.0 6.0 0.00 0.00 0.00 39 1025.0
20260905183100 72 341 1.0 6.0 0.00 0.00 0.00 40 1025.0
20260905181719 71 53 1.0 8.0 0.00 0.00 0.00 38 1024.9
20260905180108 72 198 0.0 5.0 0.00 0.00 0.00 31 1024.9
20260905174600 70 293 1.0 6.0 0.00 0.00 0.00 24 1024.7
20260905173057 70 238 1.0 5.0 0.00 0.00 0.00 15 1024.5
20260905171555 70 233 0.0 5.0 0.00 0.00 0.00 14 1024.3
20260905170105 69 0 0.0 6.0 0.00 0.00 0.00 13 1024.2
20260905164602 69 0 1.0 5.0 0.00 0.00 0.00 14 1024.1
20260905163058 68 298 0.0 4.0 0.00 0.00 0.00 14 1024.0
20260905161553 66 243 1.0 6.0 0.00 0.00 0.00 14 1023.9
20260905160134 66 0 0.0 3.0 0.00 0.00 0.00 16 1023.6
20260905154554 63 86 0.0 2.0 0.00 0.00 0.00 19 1023.6
20260905153057 57 0 0.0 1.0 0.00 0.00 0.00 26 1023.5
20260905151603 51 148 0.0 1.0 0.00 0.00 0.00 34 1023.2
20260905150059 46 0 0.0 2.0 0.00 0.00 0.00 43 1023.2
20260905144601 43 0 0.0 1.0 0.00 0.00 0.00 45 1023.0
20260905143056 43 72 0.0 1.0 0.00 0.00 0.00 45 1022.9
20260905141552 42 0 0.0 2.0 0.00 0.00 0.00 45 1022.9
20260905140059 42 69 0.0 2.0 0.00 0.00 0.00 45 1022.7
20260905134605 42 70 0.0 2.0 0.00 0.00 0.00 46 1022.6
20260905133051 42 69 0.0 1.0 0.00 0.00 0.00 46 1022.3
20260905131604 42 0 1.0 2.0 0.00 0.00 0.00 46 1022.1
20260905130056 42 0 0.0 1.0 0.00 0.00 0.00 46 1021.9
20260905124602 42 0 0.0 2.0 0.00 0.00 0.00 46 1021.8
20260905123058 42 79 0.0 1.0 0.00 0.00 0.00 48 1021.7
20260905121557 42 0 0.0 2.0 0.00 0.00 0.00 48 1021.7
20260905120119 42 73 0.0 2.0 0.00 0.00 0.00 49 1021.8
20260905114559 42 0 0.0 1.0 0.00 0.00 0.00 49 1021.6
20260905113057 43 74 0.0 3.0 0.00 0.00 0.00 49 1021.7
20260905111609 43 0 0.0 1.0 0.00 0.00 0.00 49 1021.8
20260905110100 43 75 0.0 2.0 0.00 0.00 0.00 50 1021.8
20260905104556 43 0 0.0 1.0 0.00 0.00 0.00 51 1022.0
20260905103059 43 0 1.0 2.0 0.00 0.00 0.00 52 1022.0
20260905101556 43 0 0.0 2.0 0.00 0.00 0.00 52 1022.0
20260905100133 43 75 0.0 3.0 0.00 0.00 0.00 53 1021.9
20260905094559 43 0 0.0 1.0 0.00 0.00 0.00 54 1022.0
20260905093053 43 69 0.0 1.0 0.00 0.00 0.00 54 1021.9
20260905091622 43 0 0.0 1.0 0.00 0.00 0.00 54 1022.1
20260905090118 44 0 0.0 1.0 0.00 0.00 0.00 54 1022.2
20260905084607 45 0 0.0 2.0 0.00 0.00 0.00 54 1022.3
20260905083102 45 0 0.0 1.0 0.00 0.00 0.00 53 1022.4
20260905081601 45 0 0.0 1.0 0.00 0.00 0.00 51 1022.4
20260905080101 46 0 0.0 1.0 0.00 0.00 0.00 49 1022.4
20260905074559 46 0 0.0 1.0 0.00 0.00 0.00 48 1022.4
20260905073103 47 0 0.0 1.0 0.00 0.00 0.00 48 1022.5
20260905071600 47 98 0.0 1.0 0.00 0.00 0.00 47 1022.5
20260905070119 47 0 0.0 4.0 0.00 0.00 0.00 46 1022.4
20260905064556 47 122 0.0 0.0 0.00 0.00 0.00 47 1022.6
20260905063100 47 0 0.0 0.0 0.00 0.00 0.00 47 1022.6
20260905061621 47 0 0.0 1.0 0.00 0.00 0.00 47 1022.6
20260905060116 47 0 0.0 1.0 0.00 0.00 0.00 47 1022.6
20260905054601 48 0 0.0 1.0 0.00 0.00 0.00 47 1022.7
20260905053058 48 0 0.0 1.0 0.00 0.00 0.00 48 1022.7
20260905051557 48 0 0.0 2.0 0.00 0.00 0.00 48 1022.7
20260905050058 48 0 0.0 1.0 0.00 0.00 0.00 50 1022.8
20260905044554 48 0 0.0 1.0 0.00 0.00 0.00 50 1022.8
20260905043104 49 0 0.0 1.0 0.00 0.00 0.00 52 1022.6
20260905041601 49 0 0.0 1.0 0.00 0.00 0.00 54 1022.6
20260905040059 50 0 0.0 1.0 0.00 0.00 0.00 55 1022.6